Language: 


Des rapports , des résumés tant et plus, au choix de chacun....


Données statistiques de la station
Quotidien Rapport Novembre 29, 2017 Unités:  Anglais    Métrique   les deux
« Précédent Jour
Suivant Jour »
Quotidien Hebdomadaire Mensuel Annuel Actuel
  Haut: Bas: Moyen:
Température: TemperatureC °F 0.9 °F 3.7 °F
Pt de rosée: DewpointC °F 1.0 °F 3.7 °F
Humidité: Humidity % 93 % 97 %
Vitesse du vent: WindSpeedKMH mph 0.0 mph 5.1 mph
Rafales: WindSpeedGustKMH mph - -
Vent:- - West
Pression: PressurehPa in 1001.9 in -
Précipitation: 13.2 in    
Historical Graphs
 
 
Données statistiques pour Novembre 29, 2017
Heure Température Point de rosée Pression Vent Vitesse du vent Refales Humidité Pluie (taux horaire)
TemperatureC °F DewpointC °F PressurehPa in Calm     Humidity % HourlyPrecipMM in
00:03 0.9 °F 1.0 °F 1006.0 in West 5.0 mph 9.0 mph 98 % 0.0 in
00:13 1.1 °F 1.0 °F 1005.0 in WSW 6.4 mph 12.6 mph 98 % 0.0 in
00:18 1.3 °F 1.0 °F 1005.0 in West 9.0 mph 14.0 mph 98 % 0.0 in
00:23 1.4 °F 1.0 °F 1005.0 in West 3.2 mph 14.0 mph 98 % 0.0 in
00:28 1.5 °F 2.0 °F 1005.0 in NW 9.7 mph 13.7 mph 98 % 0.0 in
00:38 1.7 °F 2.0 °F 1005.0 in WSW 6.9 mph 15.4 mph 98 % 0.0 in
00:43 1.8 °F 2.0 °F 1003.9 in West 12.6 mph 15.4 mph 98 % 0.0 in
00:48 1.9 °F 2.0 °F 1003.9 in West 13.0 mph 15.8 mph 98 % 0.0 in
00:53 1.9 °F 2.0 °F 1003.9 in West 16.6 mph 16.6 mph 98 % 0.0 in
00:58 2.0 °F 2.0 °F 1005.0 in West 13.0 mph 16.9 mph 98 % 0.0 in
01:08 2.1 °F 2.0 °F 1005.0 in West 12.2 mph 16.6 mph 98 % 0.0 in
01:13 2.1 °F 2.0 °F 1005.0 in West 7.6 mph 13.0 mph 98 % 0.0 in
01:18 2.1 °F 2.0 °F 1005.0 in West 10.5 mph 13.0 mph 98 % 0.0 in
01:23 2.2 °F 2.0 °F 1005.0 in West 9.3 mph 11.9 mph 98 % 0.0 in
01:33 2.3 °F 3.0 °F 1003.9 in West 5.5 mph 10.5 mph 98 % 0.3 in
01:39 2.4 °F 3.0 °F 1003.9 in WSW 4.7 mph 10.5 mph 98 % 0.3 in
01:44 2.4 °F 3.0 °F 1005.0 in WSW 1.8 mph 9.3 mph 98 % 0.3 in
01:49 2.5 °F 3.0 °F 1005.0 in West 8.7 mph 9.0 mph 98 % 0.3 in
01:54 2.5 °F 3.0 °F 1005.0 in WSW 10.5 mph 10.5 mph 98 % 0.3 in
01:59 2.6 °F 3.0 °F 1005.0 in West 11.9 mph 11.9 mph 98 % 0.3 in
02:09 2.7 °F 3.0 °F 1005.0 in West 4.0 mph 13.7 mph 98 % 0.5 in
02:14 2.7 °F 3.0 °F 1003.9 in West 6.4 mph 13.0 mph 98 % 0.8 in
02:19 2.7 °F 3.0 °F 1003.9 in West 1.8 mph 9.7 mph 98 % 1.3 in
02:24 2.7 °F 3.0 °F 1003.9 in WSW 3.5 mph 9.7 mph 98 % 1.3 in
02:29 2.7 °F 3.0 °F 1005.0 in West 5.0 mph 6.4 mph 98 % 1.5 in
02:34 2.7 °F 3.0 °F 1005.0 in West 7.2 mph 9.3 mph 98 % 1.3 in
02:39 2.7 °F 3.0 °F 1005.0 in West 9.7 mph 11.9 mph 98 % 1.5 in
02:44 2.7 °F 3.0 °F 1005.0 in WSW 12.2 mph 12.2 mph 98 % 1.5 in
02:54 2.7 °F 3.0 °F 1005.0 in WSW 8.7 mph 13.7 mph 98 % 1.8 in
02:59 2.7 °F 3.0 °F 1005.0 in WSW 7.6 mph 12.2 mph 98 % 1.8 in
03:09 2.7 °F 3.0 °F 1005.0 in SW 7.6 mph 10.1 mph 98 % 1.8 in
03:14 2.7 °F 3.0 °F 1005.0 in WSW 8.7 mph 10.1 mph 98 % 1.5 in
03:19 2.7 °F 3.0 °F 1005.0 in WSW 9.3 mph 10.1 mph 98 % 1.3 in
03:29 2.7 °F 3.0 °F 1003.9 in SW 6.1 mph 9.7 mph 98 % 1.0 in
03:34 2.7 °F 3.0 °F 1003.9 in Calm   9.7 mph 98 % 1.0 in
03:39 2.8 °F 3.0 °F 1003.9 in Calm   9.0 mph 98 % 0.5 in
03:49 2.8 °F 3.0 °F 1005.0 in Calm   6.1 mph 98 % 0.8 in
03:54 2.8 °F 3.0 °F 1005.0 in WSW 8.7 mph 9.7 mph 98 % 1.5 in
03:59 2.8 °F 3.0 °F 1005.0 in WSW 4.7 mph 9.7 mph 98 % 1.8 in
04:04 2.9 °F 3.0 °F 1005.0 in SW 8.7 mph 10.5 mph 98 % 2.3 in
04:09 3.0 °F 3.0 °F 1005.0 in WSW 11.6 mph 24.8 mph 98 % 1.8 in
04:16 3.1 °F 3.0 °F 1003.9 in WSW 11.9 mph 24.8 mph 98 % 2.3 in
04:21 3.1 °F 3.0 °F 1003.9 in WSW 9.7 mph 19.5 mph 98 % 2.3 in
04:24 3.1 °F 3.0 °F 1003.9 in WSW 9.0 mph 14.0 mph 98 % 2.3 in
04:25 3.1 °F 3.0 °F 1003.9 in WSW 6.9 mph 14.0 mph 98 % 2.3 in
04:26 3.1 °F 3.0 °F 1002.9 in WSW 9.0 mph 14.0 mph 98 % 2.3 in
04:27 3.1 °F 3.0 °F 1002.9 in WSW 7.6 mph 14.0 mph 98 % 2.3 in
04:32 3.0 °F 3.0 °F 1002.9 in Calm   9.7 mph 98 % 2.3 in
04:35 3.0 °F 3.0 °F 1002.9 in Calm   9.0 mph 98 % 2.3 in
04:40 3.0 °F 3.0 °F 1002.9 in WSW 4.0 mph 4.7 mph 98 % 1.8 in
04:45 3.0 °F 3.0 °F 1002.9 in WSW 8.7 mph 9.0 mph 98 % 1.5 in
05:00 3.0 °F 3.0 °F 1002.9 in West 8.7 mph 10.5 mph 98 % 0.5 in
05:05 3.1 °F 3.0 °F 1002.9 in WSW 10.5 mph 13.0 mph 98 % 0.3 in
05:10 3.3 °F 3.0 °F 1002.9 in West 9.7 mph 13.7 mph 98 % 0.3 in
05:20 3.6 °F 4.0 °F 1002.9 in West 5.8 mph 20.1 mph 98 % 0.3 in
05:25 3.6 °F 4.0 °F 1002.9 in WSW 13.7 mph 18.0 mph 98 % 0.3 in
05:30 3.6 °F 4.0 °F 1002.9 in WSW 7.9 mph 13.7 mph 98 % 0.3 in
05:35 3.6 °F 4.0 °F 1002.9 in WSW 7.9 mph 13.7 mph 98 % 0.3 in
05:50 3.6 °F 4.0 °F 1002.9 in WSW 11.9 mph 18.0 mph 98 % 0.5 in
05:55 3.6 °F 4.0 °F 1002.9 in WSW 10.1 mph 18.0 mph 98 % 0.5 in
06:00 3.6 °F 4.0 °F 1002.9 in West 15.8 mph 17.2 mph 98 % 0.5 in
06:10 3.6 °F 4.0 °F 1002.9 in West 10.5 mph 23.8 mph 98 % 0.3 in
06:15 3.6 °F 4.0 °F 1002.9 in WSW 9.0 mph 16.9 mph 98 % 0.3 in
06:20 3.6 °F 4.0 °F 1002.9 in West 9.7 mph 15.8 mph 98 % 0.3 in
06:26 3.5 °F 4.0 °F 1002.9 in West 13.7 mph 14.0 mph 98 % 0.3 in
06:31 3.6 °F 4.0 °F 1002.9 in WSW 13.7 mph 16.6 mph 98 % 0.3 in
06:36 3.7 °F 4.0 °F 1002.9 in WNW 14.0 mph 21.2 mph 98 % 0.3 in
06:42 3.8 °F 4.0 °F 1002.9 in West 21.6 mph 21.6 mph 98 % 0.3 in
06:52 3.8 °F 4.0 °F 1002.9 in WSW 12.2 mph 23.3 mph 98 % 0.5 in
06:57 3.8 °F 4.0 °F 1002.9 in West 14.0 mph 21.2 mph 98 % 0.5 in
07:02 3.9 °F 4.0 °F 1002.9 in West 9.3 mph 21.2 mph 98 % 1.0 in
07:07 3.9 °F 4.0 °F 1002.9 in West 4.7 mph 14.3 mph 98 % 1.0 in
07:12 3.9 °F 4.0 °F 1002.9 in West 1.8 mph 11.9 mph 98 % 1.0 in
07:22 3.9 °F 4.0 °F 1002.9 in West 9.3 mph 15.4 mph 98 % 2.3 in
07:32 4.0 °F 4.0 °F 1002.9 in West 10.5 mph 12.6 mph 98 % 2.3 in
07:37 4.0 °F 4.0 °F 1002.9 in West 11.6 mph 12.2 mph 98 % 2.3 in
07:42 4.0 °F 4.0 °F 1001.9 in West 11.6 mph 12.2 mph 98 % 1.8 in
07:47 4.1 °F 4.0 °F 1001.9 in West 12.2 mph 16.6 mph 98 % 1.5 in
07:52 4.1 °F 4.0 °F 1001.9 in West 19.8 mph 19.8 mph 98 % 1.5 in
07:57 4.2 °F 4.0 °F 1002.9 in West 11.9 mph 19.8 mph 98 % 1.8 in
08:03 4.2 °F 4.0 °F 1002.9 in West 9.0 mph 20.6 mph 98 % 1.5 in
08:08 4.2 °F 4.0 °F 1002.9 in West 5.5 mph 20.6 mph 98 % 1.5 in
08:13 4.3 °F 4.0 °F 1002.9 in WSW 7.9 mph 13.7 mph 98 % 1.3 in
08:23 4.1 °F 4.0 °F 1002.9 in WNW 7.9 mph 13.7 mph 98 % 0.3 in
08:33 4.2 °F 4.0 °F 1002.9 in West 11.9 mph 17.2 mph 98 % 0.3 in
08:38 4.2 °F 4.0 °F 1002.9 in West 11.1 mph 13.7 mph 98 % 0.3 in
08:43 4.2 °F 4.0 °F 1003.9 in West 3.5 mph 15.1 mph 98 % 0.3 in
08:45 4.3 °F 4.0 °F 1003.9 in West 10.1 mph 15.1 mph 98 % 0.3 in
08:50 4.3 °F 4.0 °F 1003.9 in Calm   15.1 mph 98 % 0.3 in
09:05 4.1 °F 4.0 °F 1003.9 in NE 5.0 mph 13.0 mph 98 % 0.8 in
09:10 4.0 °F 4.0 °F 1003.9 in North 1.4 mph 13.0 mph 98 % 1.0 in
09:15 4.0 °F 4.0 °F 1003.9 in Calm   9.3 mph 98 % 1.0 in
09:20 3.9 °F 4.0 °F 1003.9 in Calm   3.5 mph 98 % 1.0 in
09:25 3.8 °F 4.0 °F 1005.0 in NNE 4.7 mph 12.6 mph 98 % 1.0 in
09:30 3.7 °F 4.0 °F 1005.0 in ENE 7.6 mph 12.6 mph 98 % 1.0 in
09:36 3.6 °F 4.0 °F 1005.0 in Calm   12.2 mph 98 % 1.0 in
09:46 3.5 °F 4.0 °F 1005.0 in Calm   9.0 mph 98 % 1.3 in
09:51 3.4 °F 3.0 °F 1005.0 in Calm   9.0 mph 98 % 1.3 in
10:01 3.3 °F 3.0 °F 1005.0 in NNE 9.0 mph 9.3 mph 98 % 1.5 in
10:06 3.2 °F 3.0 °F 1005.0 in NNE 5.0 mph 12.2 mph 98 % 1.3 in
10:11 3.1 °F 3.0 °F 1005.0 in ENE 5.5 mph 12.2 mph 98 % 1.8 in
10:16 3.1 °F 3.0 °F 1005.0 in Calm   6.9 mph 98 % 2.3 in
10:21 3.1 °F 3.0 °F 1005.0 in Calm   6.1 mph 98 % 2.5 in
10:26 3.1 °F 3.0 °F 1005.0 in Calm   1.4 mph 98 % 2.5 in
10:31 3.2 °F 3.0 °F 1005.0 in Calm     98 % 2.5 in
10:46 3.4 °F 3.0 °F 1005.0 in Calm     98 % 2.5 in
10:56 3.7 °F 4.0 °F 1003.9 in Calm     98 % 2.5 in
11:01 3.8 °F 4.0 °F 1003.9 in Calm   4.7 mph 98 % 2.3 in
11:06 3.9 °F 4.0 °F 1003.9 in Calm   4.7 mph 98 % 1.5 in
11:11 4.0 °F 4.0 °F 1005.0 in Calm     98 % 0.8 in
11:16 4.2 °F 4.0 °F 1005.0 in WSW 2.6 mph 2.6 mph 98 % 0.5 in
11:21 4.3 °F 4.0 °F 1005.0 in Calm   2.6 mph 98 % 0.3 in
11:26 4.4 °F 4.0 °F 1003.9 in Calm   5.8 mph 98 % 0.3 in
11:31 4.3 °F 4.0 °F 1003.9 in Calm   5.8 mph 98 % 0.3 in
11:36 4.3 °F 4.0 °F 1003.9 in South 1.8 mph 4.3 mph 98 % 0.3 in
11:41 4.3 °F 4.0 °F 1005.0 in Calm   3.2 mph 98 % 0.0 in
11:46 4.3 °F 4.0 °F 1005.0 in Calm   3.2 mph 98 % 0.0 in
11:51 4.3 °F 4.0 °F 1005.0 in Calm   3.2 mph 98 % 0.0 in
11:56 4.3 °F 4.0 °F 1003.9 in Calm   3.2 mph 98 % 0.0 in
12:01 4.6 °F 5.0 °F 1003.9 in Calm     98 % 0.0 in
12:21 5.7 °F 6.0 °F 1005.0 in Calm     98 % 0.0 in
12:26 5.9 °F 6.0 °F 1005.0 in Calm     98 % 0.0 in
12:31 6.1 °F 6.0 °F 1005.0 in Calm     98 % 0.0 in
12:36 6.0 °F 6.0 °F 1005.0 in NNW 5.0 mph 8.7 mph 98 % 0.0 in
12:46 5.6 °F 6.0 °F 1005.0 in Calm   12.6 mph 98 % 0.5 in
12:51 5.7 °F 6.0 °F 1005.0 in Calm   11.6 mph 98 % 0.5 in
12:56 5.7 °F 6.0 °F 1005.0 in WNW 5.0 mph 11.6 mph 98 % 0.5 in
13:02 6.0 °F 6.0 °F 1005.0 in West 9.0 mph 10.1 mph 98 % 0.5 in
13:12 6.7 °F 7.0 °F 1005.0 in West 1.4 mph 13.7 mph 98 % 0.5 in
13:17 7.0 °F 7.0 °F 1005.0 in WNW 7.6 mph 14.0 mph 98 % 0.5 in
13:22 7.0 °F 7.0 °F 1005.0 in NW 11.9 mph 14.0 mph 98 % 0.5 in
13:32 7.4 °F 7.0 °F 1005.0 in North 11.9 mph 15.8 mph 98 % 0.5 in
13:37 7.4 °F 7.0 °F 1005.0 in WNW 10.5 mph 16.3 mph 98 % 0.5 in
13:42 7.6 °F 8.0 °F 1005.0 in North 11.1 mph 19.1 mph 98 % 0.3 in
13:52 7.5 °F 7.0 °F 1005.0 in WNW 12.2 mph 12.6 mph 96 % 0.0 in
13:57 7.4 °F 7.0 °F 1005.0 in WNW 4.7 mph 14.0 mph 96 % 0.0 in
14:02 7.2 °F 6.0 °F 1005.0 in North 2.1 mph 23.8 mph 93 % 0.0 in
14:07 7.3 °F 6.0 °F 1005.0 in West 9.0 mph 23.8 mph 93 % 0.0 in
14:22 6.7 °F 6.0 °F 1005.0 in West 10.5 mph 21.2 mph 93 % 0.0 in
14:28 6.7 °F 6.0 °F 1005.0 in WNW 9.0 mph 21.2 mph 94 % 0.0 in
14:33 6.7 °F 6.0 °F 1005.0 in WNW 9.3 mph 13.7 mph 94 % 0.0 in
14:38 6.4 °F 6.0 °F 1005.0 in NNW 7.9 mph 15.1 mph 93 % 0.0 in
14:43 6.3 °F 6.0 °F 1006.0 in WNW 6.1 mph 15.1 mph 93 % 0.0 in
14:53 6.0 °F 5.0 °F 1006.0 in West 4.7 mph 15.4 mph 93 % 0.0 in
15:13 6.1 °F 5.0 °F 1005.0 in West 7.6 mph 15.4 mph 94 % 0.0 in
15:18 5.8 °F 5.0 °F 1005.0 in NNW 5.8 mph 13.7 mph 94 % 0.0 in
15:28 5.4 °F 5.0 °F 1003.9 in WNW 5.0 mph 10.1 mph 94 % 0.3 in
15:33 5.2 °F 4.0 °F 1003.9 in WNW 4.0 mph 7.9 mph 94 % 0.3 in
15:38 5.1 °F 5.0 °F 1003.9 in SW 6.4 mph 12.2 mph 95 % 0.3 in
15:44 5.0 °F 5.0 °F 1005.0 in WSW 5.5 mph 12.2 mph 95 % 0.3 in
15:49 5.0 °F 5.0 °F 1005.0 in SW 10.1 mph 12.2 mph 96 % 0.3 in
15:54 4.9 °F 5.0 °F 1005.0 in WNW 7.2 mph 10.5 mph 96 % 0.3 in
15:59 4.8 °F 4.0 °F 1005.0 in WSW 5.0 mph 9.3 mph 97 % 0.3 in
16:04 4.7 °F 4.0 °F 1005.0 in WNW 4.0 mph 9.0 mph 97 % 0.3 in
16:09 4.7 °F 4.0 °F 1005.0 in West 4.7 mph 9.7 mph 97 % 0.3 in
16:14 4.6 °F 4.0 °F 1005.0 in WNW 6.1 mph 9.7 mph 97 % 0.3 in
16:24 4.6 °F 5.0 °F 1005.0 in West 4.3 mph 9.3 mph 98 % 0.3 in
16:34 4.5 °F 5.0 °F 1003.9 in West 4.0 mph 10.1 mph 98 % 0.0 in
16:39 4.4 °F 4.0 °F 1003.9 in Calm   10.1 mph 98 % 0.0 in
16:44 4.3 °F 4.0 °F 1003.9 in West 5.0 mph 8.7 mph 98 % 0.0 in
16:49 4.2 °F 4.0 °F 1003.9 in Calm   9.0 mph 98 % 0.0 in
16:59 4.1 °F 4.0 °F 1005.0 in West 5.8 mph 10.1 mph 98 % 0.0 in
17:04 4.0 °F 4.0 °F 1005.0 in Calm   10.1 mph 98 % 0.0 in
17:09 3.8 °F 4.0 °F 1005.0 in West 6.1 mph 6.9 mph 98 % 0.0 in
17:19 3.6 °F 4.0 °F 1005.0 in Calm   6.9 mph 98 % 0.0 in
17:24 3.5 °F 4.0 °F 1005.0 in Calm   6.4 mph 98 % 0.0 in
17:29 3.4 °F 3.0 °F 1005.0 in Calm   6.9 mph 98 % 0.0 in
17:39 3.4 °F 3.0 °F 1005.0 in Calm   6.1 mph 98 % 0.0 in
17:49 3.4 °F 3.0 °F 1006.0 in West 4.3 mph 5.8 mph 98 % 0.0 in
17:54 3.4 °F 3.0 °F 1006.0 in Calm   7.9 mph 98 % 0.0 in
17:59 3.3 °F 3.0 °F 1006.0 in Calm   7.9 mph 98 % 0.0 in
18:04 3.3 °F 3.0 °F 1006.0 in WNW 3.2 mph 6.1 mph 98 % 0.0 in
18:09 3.3 °F 3.0 °F 1006.0 in WNW 3.2 mph 9.3 mph 98 % 0.0 in
18:14 3.4 °F 3.0 °F 1006.0 in Calm   9.3 mph 98 % 0.0 in
18:19 3.5 °F 4.0 °F 1006.0 in Calm   6.9 mph 98 % 0.0 in
18:29 3.6 °F 4.0 °F 1006.0 in Calm   5.8 mph 98 % 0.0 in
18:34 3.6 °F 4.0 °F 1006.0 in Calm   6.4 mph 98 % 0.0 in
18:39 3.6 °F 4.0 °F 1006.0 in Calm   6.4 mph 98 % 0.0 in
18:44 3.6 °F 4.0 °F 1006.0 in North 7.9 mph 8.7 mph 98 % 0.0 in
18:54 3.8 °F 4.0 °F 1006.0 in WNW 4.7 mph 11.9 mph 98 % 0.0 in
19:04 3.7 °F 4.0 °F 1006.0 in Calm   9.7 mph 98 % 0.0 in
19:14 3.6 °F 4.0 °F 1007.0 in NW 7.9 mph 7.9 mph 98 % 0.0 in
19:20 3.6 °F 4.0 °F 1007.0 in Calm   7.9 mph 98 % 0.0 in
19:30 3.8 °F 4.0 °F 1007.0 in Calm   7.9 mph 98 % 0.3 in
19:35 4.0 °F 4.0 °F 1007.0 in Calm   7.6 mph 98 % 0.3 in
19:40 4.0 °F 4.0 °F 1007.0 in WNW 6.1 mph 6.1 mph 98 % 0.3 in
19:45 4.1 °F 4.0 °F 1007.0 in West 2.6 mph 6.1 mph 98 % 0.3 in
19:50 4.1 °F 4.0 °F 1007.0 in Calm   5.8 mph 98 % 0.3 in
19:55 4.1 °F 4.0 °F 1007.0 in Calm   6.4 mph 98 % 0.3 in
20:00 4.1 °F 4.0 °F 1007.0 in Calm   6.4 mph 98 % 0.3 in
20:10 4.0 °F 4.0 °F 1007.0 in Calm   2.6 mph 98 % 0.3 in
20:20 3.8 °F 4.0 °F 1007.0 in Calm   4.7 mph 98 % 0.3 in
20:25 3.7 °F 4.0 °F 1007.0 in Calm   4.7 mph 98 % 0.3 in
20:30 3.6 °F 4.0 °F 1008.0 in Calm   3.2 mph 98 % 0.0 in
20:35 3.6 °F 4.0 °F 1008.0 in Calm   4.7 mph 98 % 0.0 in
20:40 3.6 °F 4.0 °F 1008.0 in Calm   4.7 mph 98 % 0.0 in
20:45 3.7 °F 4.0 °F 1007.0 in Calm   6.1 mph 98 % 0.0 in
20:50 3.7 °F 4.0 °F 1007.0 in Calm   6.9 mph 98 % 0.0 in
20:55 3.8 °F 4.0 °F 1007.0 in WNW 4.3 mph 8.7 mph 98 % 0.3 in
21:00 4.0 °F 4.0 °F 1007.0 in North 4.0 mph 10.5 mph 98 % 0.3 in
21:05 4.0 °F 4.0 °F 1007.0 in North 4.3 mph 10.5 mph 98 % 0.3 in
21:10 4.0 °F 4.0 °F 1007.0 in NNW 5.0 mph 9.0 mph 98 % 0.3 in
21:15 3.9 °F 4.0 °F 1007.0 in North 5.5 mph 7.9 mph 98 % 0.3 in
21:20 3.8 °F 4.0 °F 1007.0 in NNW 3.5 mph 6.4 mph 98 % 0.3 in
21:25 3.7 °F 4.0 °F 1007.0 in Calm   6.4 mph 98 % 0.3 in
21:30 3.6 °F 4.0 °F 1007.0 in Calm   4.7 mph 98 % 0.3 in
21:35 3.5 °F 4.0 °F 1007.0 in Calm   4.7 mph 98 % 0.3 in
21:40 3.4 °F 3.0 °F 1007.0 in Calm     98 % 0.3 in
21:45 3.4 °F 3.0 °F 1006.0 in Calm   4.3 mph 98 % 0.3 in
21:55 3.3 °F 3.0 °F 1006.0 in Calm   4.7 mph 98 % 0.0 in
22:00 3.2 °F 3.0 °F 1007.0 in Calm   4.7 mph 98 % 0.0 in
22:05 3.0 °F 3.0 °F 1007.0 in Calm     98 % 0.0 in
22:10 2.7 °F 3.0 °F 1007.0 in Calm     98 % 0.0 in
22:15 2.4 °F 3.0 °F 1007.0 in Calm     98 % 0.0 in
22:35 1.8 °F 2.0 °F 1007.0 in Calm   4.7 mph 98 % 0.0 in
22:45 2.0 °F 2.0 °F 1008.0 in WNW 7.9 mph 9.0 mph 98 % 0.0 in
22:50 2.1 °F 2.0 °F 1008.0 in Calm   9.0 mph 98 % 0.0 in
22:55 2.2 °F 2.0 °F 1008.0 in Calm   6.9 mph 98 % 0.0 in
23:00 2.2 °F 2.0 °F 1008.0 in Calm     98 % 0.0 in
23:05 2.2 °F 2.0 °F 1008.0 in Calm     98 % 0.0 in
23:10 2.2 °F 2.0 °F 1008.0 in Calm     98 % 0.3 in
23:15 2.1 °F 2.0 °F 1007.0 in Calm     98 % 0.3 in
23:25 1.9 °F 2.0 °F 1007.0 in Calm     98 % 0.3 in
23:31 1.9 °F 2.0 °F 1007.0 in Calm     98 % 0.3 in
23:41 2.2 °F 2.0 °F 1008.0 in NW 6.1 mph 8.7 mph 98 % 0.3 in
23:46 2.7 °F 3.0 °F 1008.0 in WNW 7.6 mph 9.0 mph 98 % 0.3 in
23:51 2.9 °F 3.0 °F 1008.0 in West 9.3 mph 11.6 mph 98 % 0.3 in
Le Gheer Warneton
Courtoisie de Weather Underground - 2 mb

Mise a jour : 21/02/2018 11:49:12
Généré par Cumulus 1.9.4 (1099)